Time,TemperatureF,DewpointF,PressureIn,WindDirection,WindDirectionDegrees,WindSpeedMPH,WindSpeedGustMPH,Humidity,HourlyPrecipIn,Conditions,Clouds,dailyrainin,SoftwareType,DateUTC
2013-01-30 15:01:00,53.1,10.8,30.12,NNW,334,10.0,18.3,18,0.00,,,-99.99,FreeWX-Wi 1.01,2013-01-30 20:01:00,
2013-01-30 15:06:00,52.9,10.6,30.12,NNW,337,9.0,12.8,18,0.00,,,-99.99,FreeWX-Wi 1.01,2013-01-30 20:06:00,
2013-01-30 15:11:00,53.1,10.8,30.12,NNW,335,9.0,12.3,18,0.00,,,-99.99,FreeWX-Wi 1.01,2013-01-30 20:11:00,
2013-01-30 15:16:00,52.9,10.6,30.12,NNW,338,9.0,19.2,18,0.00,,,-99.99,FreeWX-Wi 1.01,2013-01-30 20:16:00,
2013-01-30 15:21:00,52.9,10.6,30.12,NNW,336,10.0,13.2,18,0.00,,,-99.99,FreeWX-Wi 1.01,2013-01-30 20:21:00,
2013-01-30 15:26:00,52.9,10.6,30.12,NNW,335,10.0,14.5,18,0.00,,,-99.99,FreeWX-Wi 1.01,2013-01-30 20:26:00,
2013-01-30 15:31:00,52.9,10.6,30.12,NNW,334,10.0,14.1,18,0.00,,,-99.99,FreeWX-Wi 1.01,2013-01-30 20:31:00,
2013-01-30 15:36:00,52.7,10.4,30.12,NNW,333,10.0,15.4,18,0.00,,,-99.99,FreeWX-Wi 1.01,2013-01-30 20:36:00,
2013-01-30 15:41:00,52.7,10.4,30.12,NNW,332,10.0,15.4,18,0.00,,,-99.99,FreeWX-Wi 1.01,2013-01-30 20:41:00,
2013-01-30 15:46:00,52.9,10.6,30.12,NNW,330,10.0,13.6,18,0.00,,,-99.99,FreeWX-Wi 1.01,2013-01-30 20:46:00,
2013-01-30 15:51:00,53.1,10.8,30.12,NNW,327,10.0,14.5,18,0.00,,,-99.99,FreeWX-Wi 1.01,2013-01-30 20:51:00,
2013-01-30 15:56:00,53.2,10.9,30.12,NNW,328,10.0,13.2,18,0.00,,,-99.99,FreeWX-Wi 1.01,2013-01-30 20:56:00,
2013-01-30 16:01:00,53.2,10.9,30.12,NNW,328,10.0,10.5,18,0.00,,,-99.99,FreeWX-Wi 1.01,2013-01-30 21:01:00,
2013-01-30 16:06:00,53.1,10.8,30.12,NNW,328,10.0,15.4,18,0.00,,,-99.99,FreeWX-Wi 1.01,2013-01-30 21:06:00,
2013-01-30 16:11:00,53.2,10.9,30.12,NNW,328,10.0,12.8,18,0.00,,,-99.99,FreeWX-Wi 1.01,2013-01-30 21:11:00,
2013-01-30 16:16:00,53.2,10.9,30.12,NNW,327,10.0,17.4,18,0.00,,,-99.99,FreeWX-Wi 1.01,2013-01-30 21:16:00,
2013-01-30 16:21:00,53.4,10.9,30.12,NW,326,10.0,12.8,18,0.00,,,-99.99,FreeWX-Wi 1.01,2013-01-30 21:21:00,
2013-01-30 16:26:00,53.2,10.9,30.12,NNW,327,10.0,10.0,18,0.00,,,-99.99,FreeWX-Wi 1.01,2013-01-30 21:26:00,
2013-01-30 16:31:00,53.1,10.8,30.12,NW,325,10.0,11.0,18,0.00,,,-99.99,FreeWX-Wi 1.01,2013-01-30 21:31:00,
2013-01-30 16:36:00,53.1,10.8,30.12,NW,325,10.0,10.0,18,0.00,,,-99.99,FreeWX-Wi 1.01,2013-01-30 21:36:00,
2013-01-30 16:41:00,53.4,10.9,30.12,NW,325,10.0,10.5,18,0.00,,,-99.99,FreeWX-Wi 1.01,2013-01-30 21:41:00,
2013-01-30 16:46:00,53.4,10.9,30.12,NW,324,10.0,17.0,18,0.00,,,-99.99,FreeWX-Wi 1.01,2013-01-30 21:46:00,
2013-01-30 16:51:00,53.2,10.9,30.12,NW,323,9.0,10.5,18,0.00,,,-99.99,FreeWX-Wi 1.01,2013-01-30 21:51:00,
2013-01-30 16:56:00,53.2,10.9,30.12,NW,323,9.0,9.0,18,0.00,,,-99.99,FreeWX-Wi 1.01,2013-01-30 21:56:00,
2013-01-30 17:01:00,53.1,10.8,30.12,NW,323,9.0,9.0,18,0.00,,,-99.99,FreeWX-Wi 1.01,2013-01-30 22:01:00,
2013-01-30 17:06:00,52.9,10.6,30.12,NW,323,9.0,9.0,18,0.00,,,-99.99,FreeWX-Wi 1.01,2013-01-30 22:06:00,
2013-01-30 17:11:00,52.9,10.6,30.12,NW,323,9.0,9.0,18,0.00,,,-99.99,FreeWX-Wi 1.01,2013-01-30 22:11:00,
2013-01-30 17:16:00,52.9,10.6,30.12,NW,324,9.0,11.0,18,0.00,,,-99.99,FreeWX-Wi 1.01,2013-01-30 22:16:00,
2013-01-30 17:21:00,52.7,10.4,30.12,NW,324,9.0,13.2,18,0.00,,,-99.99,FreeWX-Wi 1.01,2013-01-30 22:21:00,
2013-01-30 17:26:00,52.5,10.2,30.12,NW,324,8.0,8.3,18,0.00,,,-99.99,FreeWX-Wi 1.01,2013-01-30 22:26:00,
2013-01-30 17:31:00,52.5,10.2,30.12,NW,325,8.0,10.1,18,0.00,,,-99.99,FreeWX-Wi 1.01,2013-01-30 22:31:00,
2013-01-30 17:36:00,52.3,10.0,30.12,NW,326,8.0,11.4,18,0.00,,,-99.99,FreeWX-Wi 1.01,2013-01-30 22:36:00,
2013-01-30 17:41:00,52.0,9.9,30.12,NW,326,8.0,12.3,18,0.00,,,-99.99,FreeWX-Wi 1.01,2013-01-30 22:41:00,
2013-01-30 17:46:00,51.8,9.7,30.12,NW,325,8.0,8.3,18,0.00,,,-99.99,FreeWX-Wi 1.01,2013-01-30 22:46:00,
2013-01-30 17:51:00,51.6,10.8,30.12,NW,324,8.0,10.1,19,0.00,,,-99.99,FreeWX-Wi 1.01,2013-01-30 22:51:00,
2013-01-30 17:56:00,51.4,10.6,30.12,NW,324,8.0,14.5,19,0.00,,,-99.99,FreeWX-Wi 1.01,2013-01-30 22:56:00,
2013-01-30 18:01:00,51.3,10.4,30.12,NW,325,8.0,12.3,19,0.00,,,-99.99,FreeWX-Wi 1.01,2013-01-30 23:01:00,
2013-01-30 18:06:00,51.1,10.2,30.12,NW,325,8.0,11.0,19,0.00,,,-99.99,FreeWX-Wi 1.01,2013-01-30 23:06:00,
2013-01-30 18:11:00,50.9,10.2,30.12,NW,324,8.0,11.0,19,0.00,,,-99.99,FreeWX-Wi 1.01,2013-01-30 23:11:00,
2013-01-30 18:16:00,50.9,10.2,30.12,NW,325,8.0,14.5,19,0.00,,,-99.99,FreeWX-Wi 1.01,2013-01-30 23:16:00,
2013-01-30 18:21:00,50.7,10.0,30.12,NW,324,8.0,11.0,19,0.00,,,-99.99,FreeWX-Wi 1.01,2013-01-30 23:21:00,
2013-01-30 18:26:00,50.5,9.9,30.12,NW,323,8.0,8.0,19,0.00,,,-99.99,FreeWX-Wi 1.01,2013-01-30 23:26:00,
2013-01-30 18:31:00,50.2,9.5,30.12,NW,323,8.0,9.6,19,0.00,,,-99.99,FreeWX-Wi 1.01,2013-01-30 23:31:00,
2013-01-30 18:36:00,50.0,9.3,30.12,NW,323,7.0,7.0,19,0.00,,,-99.99,FreeWX-Wi 1.01,2013-01-30 23:36:00,
2013-01-30 18:41:00,49.8,9.3,30.09,NW,323,7.0,12.3,19,0.00,,,-99.99,FreeWX-Wi 1.01,2013-01-30 23:41:00,
2013-01-30 18:46:00,49.6,9.1,30.09,NW,323,7.0,10.5,19,0.00,,,-99.99,FreeWX-Wi 1.01,2013-01-30 23:46:00,
2013-01-30 18:51:00,49.5,9.0,30.09,NW,321,7.0,7.0,19,0.00,,,-99.99,FreeWX-Wi 1.01,2013-01-30 23:51:00,
2013-01-30 18:56:00,49.3,8.8,30.12,NW,319,7.0,7.0,19,0.00,,,-99.99,FreeWX-Wi 1.01,2013-01-30 23:56:00,
2013-01-30 19:01:00,48.7,8.4,30.12,NW,318,7.0,7.0,19,0.00,,,-99.99,FreeWX-Wi 1.01,2013-01-31 00:01:00,
2013-01-30 19:06:00,48.4,8.1,30.12,NW,317,6.0,6.3,19,0.00,,,-99.99,FreeWX-Wi 1.01,2013-01-31 00:06:00,
2013-01-30 19:11:00,48.2,7.9,30.12,NW,316,6.0,6.3,19,0.00,,,-99.99,FreeWX-Wi 1.01,2013-01-31 00:11:00,
2013-01-30 19:16:00,47.8,7.5,30.12,NW,314,6.0,6.0,19,0.00,,,-99.99,FreeWX-Wi 1.01,2013-01-31 00:16:00,
2013-01-30 19:21:00,47.5,7.3,30.12,NW,313,6.0,6.0,19,0.00,,,-99.99,FreeWX-Wi 1.01,2013-01-31 00:21:00,
2013-01-30 19:26:00,47.3,7.2,30.12,NW,312,6.0,6.0,19,0.00,,,-99.99,FreeWX-Wi 1.01,2013-01-31 00:26:00,
2013-01-30 19:31:00,46.9,6.8,30.12,NW,309,5.0,6.3,19,0.00,,,-99.99,FreeWX-Wi 1.01,2013-01-31 00:31:00,
2013-01-30 19:36:00,46.6,6.6,30.12,NW,305,5.0,5.8,19,0.00,,,-99.99,FreeWX-Wi 1.01,2013-01-31 00:36:00,
2013-01-30 19:41:00,46.2,7.3,30.12,WNW,303,4.0,4.0,20,0.00,,,-99.99,FreeWX-Wi 1.01,2013-01-31 00:41:00,
2013-01-30 19:46:00,46.0,7.2,30.12,WNW,302,4.0,4.0,20,0.00,,,-99.99,FreeWX-Wi 1.01,2013-01-31 00:46:00,
2013-01-30 19:51:00,45.3,6.6,30.12,WNW,300,4.0,4.0,20,0.00,,,-99.99,FreeWX-Wi 1.01,2013-01-31 00:51:00,
2013-01-30 19:56:00,45.0,6.3,30.12,WNW,300,4.0,4.0,20,0.00,,,-99.99,FreeWX-Wi 1.01,2013-01-31 00:56:00,
2013-01-30 20:01:00,44.6,6.1,30.12,WNW,298,4.0,4.0,20,0.00,,,-99.99,FreeWX-Wi 1.01,2013-01-31 01:01:00,
2013-01-30 20:06:00,44.2,5.7,30.12,WNW,298,4.0,4.0,20,0.00,,,-99.99,FreeWX-Wi 1.01,2013-01-31 01:06:00,
2013-01-30 20:11:00,43.7,5.4,30.12,WNW,297,3.0,3.6,20,0.00,,,-99.99,FreeWX-Wi 1.01,2013-01-31 01:11:00,
2013-01-30 20:16:00,43.5,5.2,30.12,WNW,297,3.0,3.6,20,0.00,,,-99.99,FreeWX-Wi 1.01,2013-01-31 01:16:00,
2013-01-30 20:21:00,43.2,4.8,30.12,WNW,296,3.0,3.0,20,0.00,,,-99.99,FreeWX-Wi 1.01,2013-01-31 01:21:00,
2013-01-30 20:27:00,43.0,4.6,30.15,WNW,295,3.0,3.1,20,0.00,,,-99.99,FreeWX-Wi 1.01,2013-01-31 01:27:00,
2013-01-30 20:32:00,42.6,5.5,30.15,WNW,294,3.0,3.6,21,0.00,,,-99.99,FreeWX-Wi 1.01,2013-01-31 01:32:00,
2013-01-30 20:37:00,42.4,5.4,30.15,WNW,294,3.0,4.0,21,0.00,,,-99.99,FreeWX-Wi 1.01,2013-01-31 01:37:00,
2013-01-30 20:42:00,42.3,5.2,30.15,WNW,294,3.0,3.1,21,0.00,,,-99.99,FreeWX-Wi 1.01,2013-01-31 01:42:00,
2013-01-30 20:47:00,42.3,5.2,30.15,WNW,293,3.0,4.0,21,0.00,,,-99.99,FreeWX-Wi 1.01,2013-01-31 01:47:00,
2013-01-30 20:52:00,41.9,4.8,30.15,WNW,293,2.0,4.0,21,0.00,,,-99.99,FreeWX-Wi 1.01,2013-01-31 01:52:00,
2013-01-30 20:57:00,41.7,4.6,30.15,WNW,293,2.0,0.0,21,0.00,,,-99.99,FreeWX-Wi 1.01,2013-01-31 01:57:00,
2013-01-30 21:02:00,41.5,4.5,30.15,WNW,292,2.0,0.0,21,0.00,,,-99.99,FreeWX-Wi 1.01,2013-01-31 02:02:00,
2013-01-30 21:07:00,41.2,4.3,30.15,WNW,292,2.0,0.0,21,0.00,,,-99.99,FreeWX-Wi 1.01,2013-01-31 02:07:00,
2013-01-30 21:12:00,41.0,4.1,30.15,WNW,292,1.0,0.0,21,0.00,,,-99.99,FreeWX-Wi 1.01,2013-01-31 02:12:00,
2013-01-30 21:17:00,40.3,0.1,30.15,WNW,292,1.0,0.0,18,0.00,,,-99.99,FreeWX-Wi 1.01,2013-01-31 02:17:00,
2013-01-30 21:22:00,39.4,-0.6,30.15,WNW,292,1.0,0.0,18,0.00,,,-99.99,FreeWX-Wi 1.01,2013-01-31 02:22:00,
2013-01-30 21:27:00,38.8,0.1,30.15,WNW,292,1.0,0.0,19,0.00,,,-99.99,FreeWX-Wi 1.01,2013-01-31 02:27:00,
2013-01-30 21:32:00,38.3,-0.2,30.15,WNW,291,1.0,0.0,19,0.00,,,-99.99,FreeWX-Wi 1.01,2013-01-31 02:32:00,
2013-01-30 21:37:00,37.8,-0.8,30.15,North,-999,0.0,0.0,19,0.00,,,-99.99,FreeWX-Wi 1.01,2013-01-31 02:37:00,
2013-01-30 21:42:00,37.6,-0.9,30.15,North,-999,0.0,0.0,19,0.00,,,-99.99,FreeWX-Wi 1.01,2013-01-31 02:42:00,
2013-01-30 21:47:00,37.2,-1.1,30.15,North,-999,0.0,0.0,19,0.00,,,-99.99,FreeWX-Wi 1.01,2013-01-31 02:47:00,
2013-01-30 21:52:00,36.9,-1.5,30.15,North,-999,0.0,0.0,19,0.00,,,-99.99,FreeWX-Wi 1.01,2013-01-31 02:52:00,
2013-01-30 21:57:00,36.7,-1.7,30.15,North,-999,0.0,0.0,19,0.00,,,-99.99,FreeWX-Wi 1.01,2013-01-31 02:57:00,
2013-01-30 22:02:00,36.5,-1.8,30.15,North,-999,0.0,0.0,19,0.00,,,-99.99,FreeWX-Wi 1.01,2013-01-31 03:02:00,
2013-01-30 22:07:00,36.3,-2.0,30.15,North,-999,0.0,0.0,19,0.00,,,-99.99,FreeWX-Wi 1.01,2013-01-31 03:07:00,
2013-01-30 22:12:00,36.1,-2.0,30.15,North,-999,0.0,0.0,19,0.00,,,-99.99,FreeWX-Wi 1.01,2013-01-31 03:12:00,
2013-01-30 22:17:00,35.4,-1.7,30.15,North,-999,0.0,0.0,20,0.00,,,-99.99,FreeWX-Wi 1.01,2013-01-31 03:17:00,
2013-01-30 22:22:00,35.1,-1.8,30.15,North,-999,0.0,0.0,20,0.00,,,-99.99,FreeWX-Wi 1.01,2013-01-31 03:22:00,
2013-01-30 22:27:00,34.9,-2.0,30.15,North,-999,0.0,0.0,20,0.00,,,-99.99,FreeWX-Wi 1.01,2013-01-31 03:27:00,
2013-01-30 22:32:00,34.9,-2.0,30.15,North,-999,0.0,0.0,20,0.00,,,-99.99,FreeWX-Wi 1.01,2013-01-31 03:32:00,
2013-01-30 22:37:00,34.5,-2.4,30.15,North,-999,0.0,0.0,20,0.00,,,-99.99,FreeWX-Wi 1.01,2013-01-31 03:37:00,
2013-01-30 22:42:00,34.2,-2.7,30.15,North,-999,0.0,0.0,20,0.00,,,-99.99,FreeWX-Wi 1.01,2013-01-31 03:42:00,
2013-01-30 22:47:00,33.8,-2.9,30.15,North,-999,0.0,0.0,20,0.00,,,-99.99,FreeWX-Wi 1.01,2013-01-31 03:47:00,
2013-01-30 22:52:00,33.4,-3.3,30.15,North,-999,0.0,0.0,20,0.00,,,-99.99,FreeWX-Wi 1.01,2013-01-31 03:52:00,
2013-01-30 22:57:00,32.9,-3.6,30.15,North,-999,0.0,0.0,20,0.00,,,-99.99,FreeWX-Wi 1.01,2013-01-31 03:57:00,
2013-01-30 23:02:00,32.7,-3.8,30.15,North,-999,0.0,0.0,20,0.00,,,-99.99,FreeWX-Wi 1.01,2013-01-31 04:02:00,
2013-01-30 23:07:00,32.5,-4.0,30.15,North,-999,0.0,0.0,20,0.00,,,-99.99,FreeWX-Wi 1.01,2013-01-31 04:07:00,
2013-01-30 23:12:00,32.5,-4.0,30.15,North,-999,0.0,0.0,20,0.00,,,-99.99,FreeWX-Wi 1.01,2013-01-31 04:12:00,
2013-01-30 23:17:00,32.5,-4.0,30.15,North,-999,0.0,0.0,20,0.00,,,-99.99,FreeWX-Wi 1.01,2013-01-31 04:17:00,
2013-01-30 23:22:00,32.2,-4.4,30.15,North,-999,0.0,0.0,20,0.00,,,-99.99,FreeWX-Wi 1.01,2013-01-31 04:22:00,
2013-01-30 23:27:00,31.5,-4.9,30.15,North,-999,0.0,3.1,20,0.00,,,-99.99,FreeWX-Wi 1.01,2013-01-31 04:27:00,
2013-01-30 23:32:00,30.9,-2.6,30.15,North,-999,0.0,3.6,23,0.00,,,-99.99,FreeWX-Wi 1.01,2013-01-31 04:32:00,
2013-01-30 23:37:00,30.7,-2.6,30.15,North,-999,0.0,2.2,23,0.00,,,-99.99,FreeWX-Wi 1.01,2013-01-31 04:37:00,
2013-01-30 23:42:00,30.9,-2.6,30.15,North,-999,0.0,0.0,23,0.00,,,-99.99,FreeWX-Wi 1.01,2013-01-31 04:42:00,
2013-01-30 23:47:00,30.7,-2.6,30.15,North,-999,0.0,0.0,23,0.00,,,-99.99,FreeWX-Wi 1.01,2013-01-31 04:47:00,
2013-01-30 23:52:00,30.4,-2.9,30.15,North,-999,0.0,0.0,23,0.00,,,-99.99,FreeWX-Wi 1.01,2013-01-31 04:52:00,
2013-01-30 23:57:00,30.2,-3.1,30.15,North,-999,0.0,0.0,23,0.00,,,-99.99,FreeWX-Wi 1.01,2013-01-31 04:57:00,